Temperature
31 30 29 28 29 29 28 26 23 23 26 27 27 25 24 24 23 22 21 21 20 20 19 18 18 18 17 17 17 17 16 16 16 16 16 16 16 16 16 16 16 15 15 15
30 28 28 29 30 31 30 29 27 25 25 26 27 26 25 25 24 23 22 21 21 20 19 19 18 18 18 17 17 17 16 16 16 16 16 15 15 15 16 16 15 15 15 15
28 26 28 30 31 30 29 28 27 25 24 25 26 25 23 24 24 23 23 22 21 21 20 20 19 19 18 18 17 17 16 15 15 15 15 14 15 15 15 15 15 15 14 14
29 29 29 30 30 30 27 28 28 26 24 24 25 22 21 22 23 23 23 22 22 21 21 20 20 19 19 18 17 17 16 15 15 14 14 13 13 13 14 14 14 14 14 14
29 30 30 30 30 30 28 29 27 26 24 23 21 19 20 21 22 23 23 23 22 22 21 20 20 19 19 18 17 17 16 15 14 14 13 13 12 12 12 13 13 13 13 14
29 31 31 31 31 31 31 29 27 23 21 20 18 17 19 21 22 23 24 23 22 22 21 21 20 19 19 18 17 17 16 15 14 13 13 12 12 12 12 12 12 13 13 13
26 29 31 32 30 29 29 28 26 21 18 18 19 18 19 22 24 24 24 24 23 22 22 21 20 19 18 18 17 16 15 14 14 13 12 12 11 11 11 12 12 12 12 12
24 26 30 31 30 28 28 29 27 25 24 22 20 20 21 24 25 25 25 24 23 23 22 21 20 19 18 18 17 16 15 14 13 12 12 11 11 11 11 11 11 11 11 11
27 27 30 31 31 30 29 29 30 28 28 25 22 22 22 25 25 25 25 24 24 23 22 21 20 19 18 17 16 15 14 13 13 12 11 11 11 10 10 10 10 10 10 10
29 28 30 31 31 30 30 30 29 27 26 26 25 23 22 24 25 25 25 24 23 22 21 20 19 18 17 16 15 14 14 13 12 12 11 11 10 10 9 9 9 9 9 9
30 28 29 30 29 28 29 28 28 28 27 26 26 24 25 25 25 24 24 23 22 21 20 19 18 17 16 15 15 14 13 12 12 11 11 10 10 9 9 9 9 9 9 9
30 29 27 28 29 30 29 28 28 26 26 27 27 24 26 26 25 24 24 23 21 20 19 18 17 16 15 15 14 13 12 12 11 11 10 10 9 9 9 9 8 8 8 8
28 28 26 25 26 28 29 29 28 27 27 26 26 25 26 26 25 24 23 22 20 19 19 18 17 16 15 14 13 12 12 11 11 10 10 9 9 9 8 8 8 8 8 8
27 28 27 26 27 28 29 29 28 27 26 25 26 26 26 25 24 23 22 21 20 19 18 17 16 15 14 13 12 12 11 11 10 10 9 9 9 8 8 8 8 8 8 8
29 28 28 29 29 29 29 28 28 27 26 25 25 25 25 24 24 23 22 21 20 19 18 16 15 15 14 13 12 12 11 11 10 10 9 9 9 8 8 8 8 8 8 7
29 27 27 28 29 29 28 28 28 27 27 26 26 25 26 24 24 22 21 20 19 18 17 16 15 14 13 12 12 11 11 10 10 9 9 8 8 8 8 8 8 8 7 7
28 27 26 26 28 28 27 28 28 27 27 26 25 25 25 24 23 22 21 20 19 17 16 15 14 14 13 12 12 11 10 10 9 9 8 8 8 8 8 8 7 7 7 7
27 26 26 26 27 25 28 29 28 27 27 26 26 25 24 24 23 21 20 19 17 17 16 15 14 13 13 12 11 11 10 10 9 9 8 8 8 8 7 7 7 7 7 7
29 27 26 26 26 26 28 28 27 26 26 26 25 24 24 23 22 21 18 18 17 16 15 14 13 13 12 12 11 10 10 9 9 8 8 8 7 7 7 7 7 7 7 7
29 27 26 26 25 25 27 28 27 26 25 25 25 24 23 23 22 21 19 18 16 15 14 14 13 12 12 11 10 10 9 9 8 8 8 8 7 7 7 7 7 7 7 7
27 26 26 26 25 26 28 27 27 25 24 24 24 23 22 22 20 19 18 17 16 15 14 14 13 12 11 11 10 9 9 9 8 8 8 8 7 7 7 7 7 7 7 7
28 27 26 26 26 26 27 26 26 25 24 24 23 23 22 21 20 19 18 17 16 15 14 13 12 12 11 10 10 9 9 8 8 8 8 8 7 7 7 7 8 7 7 7
28 28 27 27 26 26 26 26 26 25 24 24 23 23 21 20 20 19 18 17 16 15 14 13 12 11 11 10 9 9 8 8 8 8 8 8 8 8 8 8 8 8 7 7
28 29 27 26 27 27 27 26 26 25 24 24 23 22 21 20 19 18 17 16 15 14 13 12 12 11 11 10 9 9 8 8 8 8 8 8 7 8 8 8 8 8 7 7
27 27 27 26 27 27 27 26 26 25 24 24 23 22 21 20 19 18 17 16 15 14 13 12 11 11 10 10 9 8 8 8 8 8 7 7 7 8 8 8 8 8 8 7
28 28 27 26 27 26 26 26 26 25 24 24 23 22 21 20 18 17 16 15 14 14 13 12 11 11 10 9 9 8 8 7 7 7 7 7 7 7 8 8 8 8 8 8
Wind_Speed
14 11 7 7 10 7 9 11 13 13 4 2 8 12 11 10 10 10 9 9 9 10 9 7 6 7 7 5 4 4 5 5 5 5 6 6 6 5 5 2 3 5 5 6
8 7 12 9 12 10 6 5 4 3 6 4 5 9 11 10 9 10 11 10 10 9 8 6 5 4 4 4 3 3 6 7 7 6 7 6 6 6 6 2 2 2 4 5
1 6 17 15 10 8 8 8 5 2 5 10 8 6 8 7 8 9 10 10 9 8 7 5 3 2 1 2 2 4 3 4 6 8 7 8 8 7 6 6 4 3 4 5
1 10 12 9 7 7 6 6 6 5 5 5 1 2 6 8 8 8 9 9 8 5 5 4 1 1 3 4 4 3 3 4 5 7 8 10 10 9 9 7 6 7 6 6
7 7 7 7 5 6 4 4 2 5 5 5 8 5 4 10 10 10 9 8 7 5 2 1 2 3 4 5 5 4 4 5 5 7 9 10 9 9 9 10 11 10 8 7
17 9 6 5 6 7 7 5 1 9 8 6 3 1 5 7 10 11 9 7 5 4 2 2 3 3 4 5 5 5 5 6 6 7 8 9 10 9 10 11 11 10 7 6
14 8 5 4 6 8 11 10 5 4 2 6 8 5 5 7 7 8 7 6 4 3 3 2 3 5 5 6 5 5 6 7 7 7 7 8 9 10 11 11 9 9 8 8
4 5 5 7 6 5 9 9 8 9 5 3 8 6 4 7 7 5 3 2 1 2 3 6 7 7 7 8 7 7 6 6 6 7 7 7 9 9 8 10 10 10 9 9
3 4 3 5 5 6 8 10 12 11 9 1 7 7 6 6 6 3 2 2 4 6 7 8 9 10 9 8 7 7 7 6 6 7 8 8 7 7 9 9 10 10 9 11
7 7 3 2 2 4 8 9 8 8 9 8 5 8 6 5 3 5 6 6 7 8 9 11 11 11 10 9 7 7 7 7 7 8 7 10 8 8 8 9 9 10 10 10
7 6 7 4 6 8 9 10 9 9 9 8 6 7 8 5 5 6 7 8 9 9 11 11 11 10 10 10 9 8 8 8 7 7 7 7 8 8 9 8 9 8 9 9
7 6 6 8 8 5 3 6 8 8 9 8 7 6 4 3 5 6 7 8 9 10 10 11 11 10 10 11 11 10 9 9 8 8 8 8 8 9 10 10 9 9 9 10
8 5 5 3 4 6 3 4 6 7 7 8 8 5 0 6 9 10 10 10 9 10 10 10 10 10 11 11 11 12 12 11 11 10 9 9 10 11 11 10 10 10 10 10
4 5 6 6 4 5 7 5 4 6 7 9 10 11 10 11 10 10 9 8 9 9 9 10 9 8 9 9 9 11 12 12 12 11 12 11 11 11 11 11 10 10 10 11
4 8 8 9 7 6 8 8 6 6 7 8 10 11 10 11 10 9 9 10 10 10 10 11 10 9 9 9 9 10 11 10 10 12 12 12 12 11 11 11 11 11 11 14
1 6 11 12 11 7 10 9 6 5 7 8 10 10 10 11 11 10 10 11 9 10 12 12 12 11 11 10 10 10 11 10 10 11 13 13 13 12 12 12 12 12 11 12
5 5 9 12 11 11 10 4 2 5 7 7 10 9 10 12 11 11 10 9 8 11 12 13 12 11 10 10 9 10 10 11 11 12 13 13 13 13 13 15 14 13 13 12
6 7 7 12 14 14 7 2 1 3 5 7 8 6 9 10 9 8 7 7 9 11 12 12 12 12 12 11 11 10 12 11 12 13 13 13 13 15 14 14 14 13 12 12
7 5 7 9 13 12 3 3 3 2 8 6 4 7 10 11 11 5 8 7 8 10 10 11 12 13 12 12 11 12 13 12 13 14 14 14 15 15 15 15 14 13 12 12
6 6 7 10 14 16 15 7 7 3 3 8 6 8 10 11 10 7 9 9 9 10 10 11 12 12 11 10 11 12 13 13 13 14 15 15 15 15 16 15 14 13 11 13
8 10 12 12 14 11 7 10 1 6 4 3 7 7 8 7 7 8 9 9 9 9 10 11 11 11 10 10 10 12 13 12 13 14 15 16 15 15 15 13 11 11 11 12
9 10 11 11 12 5 8 0 5 5 2 4 6 6 6 6 7 8 8 8 9 10 11 11 10 10 9 9 10 12 12 12 13 14 15 16 16 16 14 12 12 11 11 11
8 8 7 7 7 1 3 6 5 4 4 4 6 6 5 6 7 8 8 8 9 10 10 11 11 11 10 9 10 12 12 12 13 15 16 16 17 15 13 12 11 10 9 8
11 8 7 8 10 9 10 10 6 5 5 5 5 4 5 6 7 7 7 7 8 9 10 10 12 12 11 10 11 11 11 12 13 15 16 15 15 15 12 9 9 8 8 8
13 12 13 14 12 12 12 9 8 7 7 7 5 5 5 5 6 7 6 7 7 8 9 10 10 11 12 11 11 11 11 12 14 15 15 15 14 14 11 10 8 8 6 5
14 12 10 11 9 7 9 10 10 8 8 8 7 7 5 5 5 6 6 6 7 8 9 10 11 12 12 12 11 10 10 11 13 14 14 12 13 12 11 10 9 6 6 5
Wind_Direction
237 239 272 301 287 257 199 194 197 223 248 206 147 146 151 149 142 137 137 133 126 117 116 115 114 106 100 92 76 55 31 26 355 2 343 332 331 332 313 327 36 8 351 339
274 312 302 258 252 263 262 252 161 86 341 317 175 157 146 150 146 144 142 139 134 128 128 127 129 118 103 89 54 44 33 15 358 357 322 304 319 315 303 338 359 10 352 336
140 243 263 272 283 309 330 357 4 213 238 259 224 153 122 132 142 147 141 140 138 141 138 139 133 109 58 52 26 27 29 9 3 345 327 335 328 315 320 334 321 355 336 319
257 226 249 282 315 323 325 315 296 266 215 253 233 193 173 175 177 162 152 150 146 145 150 151 179 357 337 353 1 22 28 18 1 346 337 331 321 319 325 327 326 329 313 296
299 274 280 297 295 288 255 236 326 351 343 335 21 359 222 184 181 174 169 159 151 164 179 183 287 307 326 339 339 355 23 19 4 345 330 326 321 326 323 324 315 311 299 281
308 300 295 305 303 316 306 266 18 36 25 354 329 299 248 210 187 172 166 159 165 181 223 236 284 324 344 336 339 356 9 5 354 339 328 322 322 321 314 304 297 299 298 296
307 301 297 324 337 352 318 301 317 1 64 244 219 208 226 194 162 154 154 159 169 205 247 286 324 340 344 333 338 349 355 352 344 329 318 318 316 309 298 298 311 321 318 314
306 310 327 4 355 326 293 304 317 316 299 192 179 196 158 127 114 118 119 114 290 310 348 348 343 350 344 342 349 351 351 339 329 321 315 311 300 301 311 325 326 313 301 299
318 306 310 16 342 344 331 340 334 318 322 63 154 139 126 137 144 121 32 358 345 360 354 347 352 351 350 353 353 345 340 334 329 321 310 295 306 323 319 312 303 303 308 308
333 324 340 6 318 18 345 342 351 337 346 347 92 111 127 140 54 19 356 355 4 360 352 354 350 344 347 345 343 343 342 337 326 318 318 320 327 312 305 306 304 300 299 300
356 325 323 340 20 358 355 8 2 345 0 344 358 81 97 69 31 3 356 4 3 358 352 346 341 343 342 337 338 340 338 330 323 323 324 317 311 311 306 299 298 302 306 307
6 331 338 10 20 327 6 14 4 354 344 326 336 101 86 58 43 25 5 2 4 357 347 341 339 341 339 335 334 332 331 324 325 327 320 314 313 310 307 306 304 301 296 295
348 328 326 351 328 283 307 33 10 340 311 318 338 83 8 26 35 25 14 3 353 349 345 341 341 341 335 334 330 327 325 324 325 321 319 317 313 309 305 302 300 298 295 292
297 304 326 338 349 333 330 339 6 340 335 335 347 351 356 27 16 4 353 345 346 351 349 344 342 337 334 328 326 324 321 320 318 320 318 312 308 305 302 300 299 297 295 294
297 312 326 318 317 316 323 322 327 326 324 316 330 330 4 22 360 352 349 350 343 344 342 340 336 331 329 326 324 320 318 318 319 316 312 309 307 304 300 298 297 295 293 293
258 315 313 306 306 284 295 290 277 292 297 302 315 323 16 5 354 349 345 336 334 342 338 334 331 331 327 324 320 322 319 319 319 315 311 309 306 303 302 300 296 294 292 292
306 308 309 306 308 300 302 294 240 310 314 314 311 333 5 349 342 334 327 328 346 342 334 333 333 328 323 319 322 321 320 319 317 314 311 310 309 307 306 306 304 299 297 295
261 295 299 295 302 296 307 118 57 344 323 303 306 359 2 342 341 344 30 23 348 337 337 335 328 324 321 323 323 321 319 317 315 313 313 314 312 309 308 304 300 298 298 294
223 252 284 295 295 300 319 198 162 328 311 320 4 3 344 344 326 68 58 8 349 345 335 327 324 322 322 323 326 323 318 316 315 316 317 316 313 309 306 303 301 301 298 295
218 207 252 276 289 293 302 114 107 339 344 59 21 354 343 334 322 345 10 356 352 339 329 326 325 322 322 329 329 322 318 317 319 321 318 314 310 306 303 300 300 300 299 296
226 232 245 268 278 293 88 112 279 319 47 12 351 348 332 338 320 323 331 341 339 331 329 330 329 324 325 328 327 320 318 320 324 320 314 311 309 306 300 299 300 301 302 301
290 281 276 279 283 299 117 82 330 352 344 324 331 326 327 319 311 316 327 333 332 332 331 333 327 324 325 329 327 321 322 325 323 319 314 312 311 309 307 305 303 304 304 305
290 296 298 302 316 135 222 280 303 304 289 291 300 318 320 309 310 317 324 331 331 329 332 329 327 325 327 331 329 323 325 326 323 319 316 314 311 308 305 304 307 309 308 311
308 332 311 292 288 283 282 292 284 266 259 261 277 289 289 292 303 312 320 325 326 330 328 329 327 325 327 331 330 327 327 327 322 319 317 314 312 310 311 310 311 311 315 319
299 293 280 274 274 274 274 278 276 260 244 241 247 256 265 277 291 304 314 321 326 323 326 327 324 324 326 330 328 330 331 329 322 319 316 316 314 311 310 310 307 304 312 311
286 290 294 298 303 293 292 287 271 248 239 240 240 248 257 268 284 299 310 318 317 320 326 325 326 325 326 326 328 332 334 330 321 317 318 316 313 313 313 313 314 295 282 258
Height
1474 1478 1481 1479 1474 1471 1474 1484 1499 1498 1484 1483 1483 1491 1495 1499 1502 1505 1509 1511 1513 1515 1517 1518 1518 1519 1519 1518 1518 1517 1516 1515 1514 1512 1510 1509 1507 1506 1504 1502 1499 1497 1495 1493
1474 1481 1478 1472 1467 1465 1467 1476 1485 1489 1482 1481 1484 1488 1491 1497 1500 1503 1507 1510 1512 1515 1517 1518 1519 1519 1519 1519 1518 1517 1515 1514 1512 1510 1509 1507 1505 1503 1502 1500 1497 1494 1492 1490
1481 1486 1475 1469 1464 1465 1470 1478 1483 1488 1485 1482 1486 1494 1495 1497 1501 1503 1506 1508 1511 1513 1515 1517 1518 1519 1519 1518 1517 1516 1513 1511 1510 1508 1506 1504 1502 1500 1499 1497 1495 1492 1490 1488
1475 1472 1470 1467 1468 1469 1481 1474 1476 1484 1494 1494 1493 1512 1506 1502 1503 1503 1505 1508 1510 1512 1514 1516 1517 1517 1517 1517 1516 1514 1512 1509 1507 1505 1503 1501 1499 1497 1495 1493 1491 1489 1487 1485
1475 1467 1466 1468 1469 1467 1473 1469 1477 1486 1494 1501 1511 1524 1514 1504 1504 1502 1504 1506 1508 1511 1512 1514 1515 1515 1515 1515 1514 1512 1510 1507 1505 1503 1501 1499 1496 1494 1491 1489 1486 1485 1483 1482
1475 1466 1463 1463 1462 1463 1463 1469 1478 1491 1505 1525 1527 1534 1524 1507 1501 1499 1501 1504 1507 1509 1511 1512 1513 1513 1513 1512 1511 1509 1507 1505 1502 1500 1498 1496 1493 1490 1487 1484 1482 1480 1479 1478
1487 1470 1463 1461 1465 1467 1468 1476 1494 1515 1533 1533 1518 1528 1517 1498 1496 1497 1499 1502 1505 1507 1508 1509 1510 1510 1510 1509 1508 1506 1504 1501 1499 1497 1495 1492 1489 1486 1483 1481 1479 1477 1475 1474
1501 1493 1469 1464 1468 1475 1471 1473 1491 1504 1505 1510 1515 1518 1507 1495 1497 1498 1499 1501 1503 1504 1505 1507 1508 1508 1507 1506 1505 1503 1500 1498 1496 1494 1491 1488 1485 1482 1480 1477 1475 1472 1471 1470
1490 1487 1466 1465 1465 1468 1471 1471 1465 1475 1476 1493 1505 1504 1501 1495 1496 1497 1497 1499 1501 1502 1504 1506 1506 1506 1505 1503 1501 1500 1497 1495 1492 1490 1487 1484 1481 1478 1475 1472 1470 1468 1466 1464
1474 1482 1469 1465 1464 1466 1468 1468 1473 1481 1493 1496 1494 1501 1506 1498 1496 1496 1496 1498 1500 1502 1504 1504 1504 1504 1502 1501 1499 1496 1494 1491 1489 1486 1483 1480 1477 1473 1470 1467 1465 1462 1460 1458
1472 1482 1478 1469 1474 1478 1475 1476 1479 1479 1482 1497 1499 1506 1492 1494 1495 1495 1496 1498 1500 1502 1503 1503 1503 1501 1500 1498 1496 1493 1491 1488 1485 1482 1478 1475 1472 1469 1465 1463 1460 1457 1455 1452
1474 1479 1487 1482 1475 1473 1474 1479 1482 1496 1496 1487 1490 1505 1488 1490 1492 1494 1497 1499 1501 1502 1502 1502 1501 1499 1497 1495 1493 1490 1487 1484 1481 1478 1474 1471 1467 1464 1461 1458 1455 1452 1449 1447
1483 1486 1497 1500 1495 1481 1474 1476 1479 1485 1488 1491 1495 1501 1487 1486 1490 1494 1497 1499 1501 1501 1501 1500 1499 1497 1495 1492 1490 1487 1484 1481 1478 1474 1470 1466 1463 1459 1456 1452 1449 1446 1443 1441
1486 1485 1493 1501 1493 1481 1479 1477 1478 1487 1494 1497 1494 1493 1486 1488 1492 1495 1497 1499 1499 1500 1499 1498 1496 1494 1492 1489 1486 1483 1480 1477 1474 1470 1466 1462 1458 1454 1451 1447 1444 1441 1438 1435
1484 1486 1483 1480 1476 1477 1479 1479 1480 1486 1490 1496 1494 1492 1488 1490 1493 1494 1496 1497 1498 1498 1497 1496 1494 1491 1488 1486 1483 1480 1477 1473 1470 1465 1462 1458 1454 1450 1446 1442 1439 1435 1432 1429
1483 1490 1487 1484 1477 1476 1479 1476 1479 1483 1485 1487 1489 1490 1487 1490 1492 1494 1495 1496 1495 1495 1495 1493 1491 1488 1485 1482 1479 1476 1473 1469 1466 1461 1457 1453 1449 1445 1441 1437 1433 1429 1426 1422
1483 1487 1493 1493 1480 1479 1484 1474 1476 1480 1480 1484 1490 1489 1488 1490 1492 1493 1493 1493 1494 1494 1492 1490 1488 1485 1482 1479 1476 1472 1469 1465 1461 1457 1453 1448 1444 1440 1436 1431 1427 1423 1420 1416
1486 1490 1492 1491 1489 1500 1479 1468 1472 1478 1480 1481 1482 1484 1488 1490 1490 1491 1490 1492 1493 1492 1490 1487 1485 1482 1479 1475 1472 1469 1465 1461 1457 1453 1448 1444 1439 1434 1430 1425 1421 1417 1413 1409
1479 1487 1492 1494 1494 1486 1475 1470 1473 1479 1481 1478 1482 1486 1488 1488 1489 1489 1491 1492 1491 1489 1487 1484 1481 1478 1475 1472 1468 1465 1461 1457 1453 1448 1443 1438 1434 1428 1424 1419 1415 1412 1407 1402
1476 1482 1490 1491 1498 1498 1476 1468 1473 1478 1483 1483 1484 1487 1488 1488 1488 1488 1489 1489 1488 1486 1484 1481 1478 1475 1471 1468 1464 1460 1457 1453 1448 1444 1438 1433 1428 1423 1418 1414 1410 1406 1402 1396
1481 1483 1486 1488 1489 1478 1468 1472 1474 1484 1489 1484 1484 1486 1487 1487 1489 1489 1487 1486 1485 1483 1481 1478 1474 1471 1468 1464 1460 1456 1453 1448 1444 1438 1433 1428 1423 1418 1414 1410 1406 1401 1396 1391
1476 1480 1480 1480 1486 1485 1473 1474 1476 1481 1480 1481 1483 1484 1485 1486 1486 1486 1485 1484 1482 1480 1478 1475 1471 1468 1465 1461 1457 1453 1448 1444 1439 1434 1428 1423 1418 1413 1410 1405 1401 1397 1392 1387
1467 1469 1470 1474 1478 1474 1473 1473 1474 1476 1477 1479 1481 1482 1483 1483 1483 1483 1482 1481 1479 1477 1474 1471 1468 1465 1461 1458 1453 1449 1444 1439 1434 1429 1424 1418 1413 1409 1405 1402 1397 1393 1389 1384
1466 1464 1467 1470 1468 1469 1469 1469 1470 1472 1474 1476 1478 1479 1480 1480 1480 1480 1479 1478 1476 1474 1471 1468 1465 1461 1458 1454 1450 1446 1441 1436 1430 1425 1420 1414 1410 1405 1402 1398 1394 1390 1386 1381
1467 1467 1467 1467 1464 1464 1465 1465 1467 1468 1470 1472 1474 1475 1476 1477 1477 1477 1476 1475 1473 1471 1468 1465 1462 1458 1455 1451 1446 1442 1437 1432 1427 1421 1416 1411 1407 1403 1399 1395 1392 1387 1383 1379
1463 1461 1462 1463 1461 1462 1463 1464 1463 1464 1466 1468 1470 1472 1473 1474 1474 1473 1473 1472 1470 1468 1465 1462 1459 1455 1451 1447 1443 1438 1434 1429 1423 1418 1413 1408 1404 1400 1396 1392 1388 1385 1381 1377